sat.trackr.live / text

‹ back to catalog

STARLINK-35752

NORAD 66275 · 2025-247L

PAYLOAD ACTIVE UNKNOWN

§ Identity

Operator
Country
US
Launch date
2025-10-31
Launch site
AFWTR
Launch vehicle
Mass (kg)
RCS (m²)

Purposes: comms

External: N2YO · Heavens-Above · Gunter

§ Orbital elements

Epoch: 2026-09-20T13:52:30.474336Z

Period
93.85 min
Inclination
53.1626°
Eccentricity
0.0001498
Mean motion
15.34404775 rev/d
Perigee alt
461.7 km
Apogee alt
463.7 km
Semi-major
6,840.8 km
B*
4.2390e-4
RAAN
3.2534°
Arg perigee
103.8464°
Mean anomaly
256.2705°
Rev number
5,091

§ Raw data

STARLINK-357521 66275U 25247L   26263.57813049  .00013975  00000+0  42390-3 0  99972 66275  53.1626   3.2534 0001498 103.8464 256.2705 15.34404775 50918

JSON: /api/v1/satellites/66275 · /tle

For live sub-satellite position, see the globe view (requires WebGL).

§ Visibility from observer

Set your observer location to see the next 7 days of passes ≥ 10°. The values pass through the URL so the page stays shareable.

No JS? Fill the form by hand. The geolocation button needs JavaScript.